Location: Unspecified
(0.0000°N, 0.0000°E)
Time: 22:53:32
(UTC+00:00)

A-11 Canister half - All Passes

Search period start: 26 November 2014 00:00
Search period end: 06 December 2014 00:00
Orbit: 1525 x 1685 km, 47.3° (Epoch: 25 November)

Date Brightness Start Highest point End Pass type
(mag) Time Alt. Az. Time Alt. Az. Time Alt. Az.
26 Nov - 00:02:58 10° W 00:10:32 24° NW 00:18:09 10° N night (unlit)
26 Nov - 08:44:19 10° N 08:52:24 32° NE 09:00:19 10° ESE daylight
26 Nov - 10:48:13 10° NW 10:57:13 53° SW 11:06:10 10° SSE daylight
26 Nov - 19:34:22 10° SSE 19:38:16 13° SE 19:42:10 10° ESE visible
26 Nov - 21:33:50 10° SSW 21:43:48 71° SE 21:53:53 10° NE visible
26 Nov - 23:41:05 10° W 23:48:56 26° NW 23:56:51 10° N night (unlit)
27 Nov - 08:22:58 10° N 08:30:51 29° NE 08:38:33 10° ESE daylight
27 Nov - 10:26:35 10° NW 10:35:41 57° SW 10:44:44 10° SSE daylight
27 Nov - 19:13:46 10° SSE 19:16:38 11° SE 19:19:30 10° ESE visible
27 Nov - 21:12:20 10° SSW 21:22:14 66° SE 21:32:16 10° NE visible
27 Nov - 23:19:14 10° WSW 23:27:20 28° NW 23:35:31 10° N visible
28 Nov - 08:01:38 10° N 08:09:17 27° NE 08:16:47 10° ESE daylight
28 Nov - 10:04:58 10° NW 10:14:10 61° SW 10:23:17 10° SSE daylight
28 Nov - 18:54:00 10° SE 18:54:59 10° SE 18:55:58 10° SE visible
28 Nov - 20:50:52 10° SSW 21:00:40 62° SE 21:10:38 10° NE visible
28 Nov - 22:57:24 10° WSW 23:05:44 30° NW 23:14:10 10° N visible
29 Nov - 07:40:19 10° N 07:47:44 25° NE 07:54:59 10° E daylight
29 Nov - 09:43:21 10° NW 09:52:39 65° SW 10:01:50 10° SSE daylight
29 Nov - 11:57:16 10° SW 11:58:06 10° SW 11:58:56 10° SW daylight
29 Nov - 20:29:24 10° SSW 20:39:06 58° SE 20:48:59 10° NE visible
29 Nov - 22:35:36 10° WSW 22:44:09 32° NW 22:52:49 10° N visible
30 Nov - 07:19:00 10° N 07:26:10 24° NE 07:33:09 10° E daylight
30 Nov - 09:21:46 10° NW 09:31:08 70° SW 09:40:22 10° SSE daylight
30 Nov - 11:33:50 10° WSW 11:36:29 11° SW 11:39:08 10° SSW daylight
30 Nov - 20:07:57 10° SSW 20:17:33 54° SE 20:27:19 10° NE visible
30 Nov - 22:13:50 10° WSW 22:22:34 34° NW 22:31:26 10° NNE visible
01 Dec - 06:57:44 10° N 07:04:35 22° NE 07:11:18 10° E daylight
01 Dec - 09:00:11 10° NW 09:09:37 75° SW 09:18:54 10° SE daylight
01 Dec - 11:11:16 10° WSW 11:14:53 13° SW 11:18:30 10° SSW daylight
01 Dec - 19:46:31 10° SSW 19:55:59 50° SE 20:05:38 10° ENE visible
01 Dec - 21:52:05 10° WSW 22:00:59 37° NW 22:10:02 10° NNE visible
02 Dec - 06:36:29 10° N 06:43:01 20° NE 06:49:24 10° E daylight
02 Dec - 08:38:36 10° NW 08:48:06 80° SW 08:57:24 10° SE daylight
02 Dec - 10:48:56 10° WSW 10:53:17 14° SW 10:57:39 10° SSW daylight
02 Dec - 19:25:05 10° SSW 19:34:25 47° SE 19:43:56 10° ENE visible
02 Dec - 21:30:21 10° WSW 21:39:24 39° NW 21:48:37 10° NNE visible
03 Dec - 06:15:15 10° N 06:21:25 19° NE 06:27:27 10° E daylight
03 Dec - 08:17:02 10° NW 08:26:35 85° SW 08:35:55 10° SE daylight
03 Dec - 10:26:44 10° W 10:31:42 15° SW 10:36:40 10° SSW daylight
03 Dec - 19:03:41 10° SSW 19:12:52 44° SE 19:22:13 10° ENE visible
03 Dec - 21:08:39 10° WSW 21:17:49 42° NW 21:27:11 10° NNE visible
04 Dec - 05:54:04 10° N 05:59:50 17° NE 06:05:28 10° E daylight
04 Dec - 07:55:29 10° NW 08:05:03 90° NE 08:14:24 10° SE daylight
04 Dec - 10:04:38 10° W 10:10:07 17° SW 10:15:36 10° S daylight
04 Dec - 18:42:17 10° SSW 18:51:18 41° SE 19:00:29 10° ENE visible
04 Dec - 20:46:57 10° WSW 20:56:15 45° NW 21:05:44 10° NNE visible
05 Dec - 05:32:56 10° N 05:38:14 16° NE 05:43:25 10° E daylight
05 Dec - 07:33:56 10° NW 07:43:32 85° NE 07:52:53 10° SE daylight
05 Dec - 09:42:35 10° W 09:48:32 18° SW 09:54:29 10° S daylight
05 Dec - 18:20:54 10° SSW 18:29:44 38° SE 18:38:44 10° ENE visible
05 Dec - 20:25:17 10° WSW 20:34:40 48° NW 20:44:17 10° NNE visible
